User: anonymous   Login
Location: Unspecified
(0.0000°N, 0.0000°E)
Time: 17:01:26
(UTC+02:00)
Language:

IUS-9 SRM-1 - Orbit

View from above orbital plane
View from above orbital plane
View from above satellite
View from above satellite

Ground track
Ground track

The orbit data is extracted from the following two-line orbital elements,

1 19884U 89021C   16208.23687874 +.00009700 +00000-0 +64591-3 0  9996
2 19884 026.4664 258.9358 6002574 237.9068 049.9986 04.08661458320573
Epoch (UTC): 26 July 2016 05:41:06
Eccentricity: 0.6002574
inclination: 26.4664°
perigee height: 228 km
apogee height: 20067 km
right ascension of ascending node: 258.9358°
argument of perigee: 237.9068°
revolutions per day: 4.08661458
mean anomaly at epoch: 49.9986°
orbit number at epoch: 32057

The dashed part of the orbit path shows where the satellite is in the earth's shadow,  

DLR